Вернуться в каталог

KOMPSAT

АктивенНаукаSSO
NORAD 26032·PAYLOAD·🇰🇷 South Korea

Запущен Dec 21, 1999 с Vandenberg Space Force Base

Loading…

Ближайшие Пролёты (ближайшие 24 часа)

TLE

СвежийSource: Space-Track

Эпоха: Sep 14, 2026, 11:21 UTC

1 26032U 99070A   26257.47305847  .00000746  00000-0  11389-3 0  9990
2 26032  98.3104  71.7774 0003652   0.1063   0.0146 14.76880293707035

Отслеживайте KOMPSAT в реальном времени с AllMySat

Download on the App Store